| Date | Time | Temp. (oF) | Dew Point (oF) | Rel. Hum. (%) | Press. (in.) | Wind Dir. | Wind Speed (mph) | Hourly Rainfall (in.) |
|
|---|---|---|---|---|---|---|---|---|---|
| 1 | 10/29 | 00:00 | 43 | 32 | 66 | 29.77 | WNW | 10 | 0.00 |
| 2 | 10/28 | 23:00 | 44 | 31 | 61 | 29.75 | SW | 10 | 0.00 |
| 3 | 10/28 | 22:00 | 45 | 28 | 53 | 29.73 | WNW | 12 | 0.00 |
| 4 | 10/28 | 21:00 | 45 | 30 | 56 | 29.72 | NNW | 6 | 0.00 |
| 5 | 10/28 | 20:00 | 44 | 29 | 56 | 29.71 | WSW | 10 | 0.00 |
| 6 | 10/28 | 19:00 | 45 | 29 | 55 | 29.69 | W | 9 | 0.00 |
| 7 | 10/28 | 18:00 | 46 | 31 | 56 | 29.66 | NW | 8 | 0.00 |
| 8 | 10/28 | 17:00 | 46 | 32 | 58 | 29.64 | NW | 12 | 0.00 |
| 9 | 10/28 | 16:00 | 45 | 34 | 66 | 29.62 | NW | 15 | 0.00 |
| 10 | 10/28 | 15:00 | 45 | 36 | 73 | 29.59 | SW | 13 | 0.00 |
| 11 | 10/28 | 14:00 | 43 | 37 | 82 | 29.59 | NW | 16 | 0.00 |
| 12 | 10/28 | 13:00 | 44 | 39 | 83 | 29.57 | W | 13 | 0.00 |
| 13 | 10/28 | 12:00 | 43 | 41 | 93 | 29.58 | NW | 9 | 0.06 |
| 14 | 10/28 | 11:00 | 42 | 41 | 97 | 29.59 | NW | 8 | 0.07 |
| 15 | 10/28 | 10:00 | 41 | 40 | 99 | 29.61 | NNW | 10 | 0.09 |
| 16 | 10/28 | 09:00 | 41 | 40 | 99 | 29.63 | NNW | 8 | 0.08 |
| 17 | 10/28 | 08:00 | 41 | 40 | 99 | 29.64 | WNW | 12 | 0.05 |
| 18 | 10/28 | 07:00 | 40 | 39 | 99 | 29.65 | NW | 11 | 0.08 |
| 19 | 10/28 | 06:00 | 40 | 39 | 99 | 29.68 | WNW | 5 | 0.07 |
| 20 | 10/28 | 05:00 | 40 | 39 | 99 | 29.70 | NW | 8 | 0.03 |
| 21 | 10/28 | 04:00 | 40 | 39 | 99 | 29.73 | WNW | 9 | 0.01 |
| 22 | 10/28 | 03:00 | 40 | 39 | 99 | 29.77 | NW | 6 | 0.05 |
| 23 | 10/28 | 02:00 | 41 | 41 | 100 | 29.80 | NNW | 4 | 0.06 |
| 24 | 10/28 | 01:00 | 41 | 40 | 99 | 29.84 | WNW | 2 | 0.06 |